AUR2BM EGJB-EGBB

Flight info

Callsign AUR2BM
Flight time 0h 54m
Altitude 13000
Route ORIST Y110 THRED Z171 SAM Q41 SILVA
Aircraft AT76/M-SDFGIRY/S

Departure

Time 2026-04-27 14:36
Airport Guernsey Airport (EGJB)

Arrival

Time 2026-04-27 15:30
Airport Birmingham Airport (EGBB)
Time Latitude Longitude Altitude Speed Heading
2026-04-27 14:09 49.43255 -2.59621 321 ft 0 kts 178°
2026-04-27 14:10 49.43253 -2.59620 321 ft 0 kts 178°
2026-04-27 14:26 49.43254 -2.59620 325 ft 1 kts 178°
2026-04-27 14:26 49.43278 -2.59621 322 ft 4 kts 178°
2026-04-27 14:27 49.43305 -2.59623 325 ft 4 kts 178°
2026-04-27 14:27 49.43332 -2.59624 326 ft 4 kts 178°
2026-04-27 14:27 49.43358 -2.59625 326 ft 2 kts 178°
2026-04-27 14:27 49.43359 -2.59625 326 ft 0 kts 178°
2026-04-27 14:30 49.43358 -2.59626 326 ft 1 kts 191°
2026-04-27 14:30 49.43357 -2.59641 323 ft 3 kts 275°
2026-04-27 14:30 49.43359 -2.59672 325 ft 0 kts 271°
2026-04-27 14:30 49.43359 -2.59677 325 ft 0 kts 273°
2026-04-27 14:31 49.43356 -2.59730 325 ft 9 kts 257°
2026-04-27 14:31 49.43345 -2.59854 320 ft 17 kts 268°
2026-04-27 14:31 49.43339 -2.60062 308 ft 19 kts 268°
2026-04-27 14:31 49.43334 -2.60268 293 ft 21 kts 267°
2026-04-27 14:32 49.43328 -2.60475 290 ft 19 kts 267°
2026-04-27 14:32 49.43334 -2.60665 292 ft 16 kts 281°
2026-04-27 14:32 49.43352 -2.60819 298 ft 13 kts 280°
2026-04-27 14:32 49.43361 -2.60894 302 ft 9 kts 280°
2026-04-27 14:33 49.43364 -2.60996 307 ft 15 kts 267°
2026-04-27 14:33 49.43360 -2.61149 308 ft 12 kts 268°
2026-04-27 14:33 49.43359 -2.61230 309 ft 0 kts 278°
2026-04-27 14:34 49.43363 -2.61248 310 ft 4 kts 288°
2026-04-27 14:34 49.43382 -2.61291 311 ft 5 kts 311°
2026-04-27 14:34 49.43412 -2.61340 312 ft 10 kts 318°
2026-04-27 14:35 49.43463 -2.61337 312 ft 6 kts 54°
2026-04-27 14:35 49.43467 -2.61307 312 ft 0 kts 88°
2026-04-27 14:35 49.43467 -2.61278 312 ft 19 kts 88°
2026-04-27 14:35 49.43481 -2.60775 306 ft 75 kts 87°
2026-04-27 14:36 49.43513 -2.59724 332 ft 118 kts 87°
2026-04-27 14:36 49.43530 -2.58484 870 ft 115 kts 84°
2026-04-27 14:36 49.43553 -2.57250 1444 ft 114 kts 82°
2026-04-27 14:36 49.43615 -2.56025 1877 ft 124 kts 82°
2026-04-27 14:37 49.43671 -2.54591 2060 ft 147 kts 83°
2026-04-27 14:37 49.43731 -2.52876 2156 ft 168 kts 85°
2026-04-27 14:37 49.43774 -2.51071 2532 ft 169 kts 85°
2026-04-27 14:37 49.44066 -2.49356 2823 ft 172 kts 48°
2026-04-27 14:38 49.44995 -2.48234 3108 ft 172 kts 36°
2026-04-27 14:38 49.45950 -2.47107 3478 ft 173 kts 37°
2026-04-27 14:38 49.46902 -2.45987 3912 ft 171 kts 35°
2026-04-27 14:38 49.47860 -2.44888 4329 ft 173 kts 35°
2026-04-27 14:39 49.48823 -2.43780 4750 ft 173 kts 35°
2026-04-27 14:39 49.49786 -2.42678 5144 ft 174 kts 35°
2026-04-27 14:39 49.50759 -2.41575 5536 ft 173 kts 35°
2026-04-27 14:39 49.51733 -2.40477 5930 ft 173 kts 35°
2026-04-27 14:40 49.52695 -2.39390 6277 ft 175 kts 34°
2026-04-27 14:40 49.53676 -2.38282 6651 ft 175 kts 35°
2026-04-27 14:40 49.54662 -2.37163 7005 ft 177 kts 35°
2026-04-27 14:40 49.55656 -2.36039 7335 ft 177 kts 34°
2026-04-27 14:41 49.56651 -2.34908 7638 ft 180 kts 34°
2026-04-27 14:41 49.57661 -2.33755 7942 ft 182 kts 35°
2026-04-27 14:41 49.58671 -2.32589 8277 ft 182 kts 35°
2026-04-27 14:41 49.59689 -2.31415 8608 ft 182 kts 34°
2026-04-27 14:42 49.60717 -2.30232 8896 ft 185 kts 36°
2026-04-27 14:42 49.61764 -2.29028 9156 ft 189 kts 34°
2026-04-27 14:42 49.62821 -2.27810 9465 ft 191 kts 34°
2026-04-27 14:42 49.63884 -2.26577 9776 ft 192 kts 36°
2026-04-27 14:43 49.64962 -2.25325 10047 ft 195 kts 35°
2026-04-27 14:43 49.66053 -2.24058 10335 ft 197 kts 35°
2026-04-27 14:43 49.67145 -2.22775 10615 ft 197 kts 35°
2026-04-27 14:43 49.68239 -2.21485 10880 ft 199 kts 34°
2026-04-27 14:44 49.69347 -2.20203 11144 ft 200 kts 34°
2026-04-27 14:44 49.70468 -2.18917 11405 ft 201 kts 33°
2026-04-27 14:44 49.71596 -2.17624 11661 ft 203 kts 35°
2026-04-27 14:44 49.72735 -2.16329 11949 ft 204 kts 34°
2026-04-27 14:45 49.73886 -2.15024 12200 ft 206 kts 34°
2026-04-27 14:45 49.75040 -2.13697 12457 ft 208 kts 34°
2026-04-27 14:45 49.76200 -2.12359 12724 ft 209 kts 34°
2026-04-27 14:45 49.77366 -2.11008 12981 ft 210 kts 34°
2026-04-27 14:46 49.78542 -2.09637 13143 ft 215 kts 34°
2026-04-27 14:46 49.79765 -2.08214 13206 ft 225 kts 35°
2026-04-27 14:46 49.81040 -2.06739 13243 ft 233 kts 34°
2026-04-27 14:46 49.82357 -2.05202 13257 ft 241 kts 35°
2026-04-27 14:47 49.83714 -2.03621 13266 ft 247 kts 35°
2026-04-27 14:47 49.85101 -2.02007 13268 ft 252 kts 35°
2026-04-27 14:47 49.86509 -2.00360 13269 ft 256 kts 35°
2026-04-27 14:47 49.87778 -1.98877 13268 ft 258 kts 35°
2026-04-27 14:48 49.89223 -1.97196 13267 ft 261 kts 35°
2026-04-27 14:48 49.92132 -1.93782 13266 ft 264 kts 35°
2026-04-27 14:48 49.93604 -1.92066 13269 ft 265 kts 35°
2026-04-27 14:49 49.95057 -1.90366 13269 ft 266 kts 35°
2026-04-27 14:49 49.96532 -1.88636 13274 ft 266 kts 35°
2026-04-27 14:49 49.98014 -1.86906 13273 ft 266 kts 34°
2026-04-27 14:49 49.99501 -1.85189 13271 ft 265 kts 31°
2026-04-27 14:50 50.00995 -1.84283 13273 ft 259 kts
2026-04-27 14:50 50.02776 -1.83926 13273 ft 258 kts
2026-04-27 14:50 50.04564 -1.83775 13273 ft 258 kts
2026-04-27 14:50 50.06359 -1.83639 13273 ft 259 kts
2026-04-27 14:51 50.08158 -1.83452 13276 ft 260 kts
2026-04-27 14:51 50.09960 -1.83212 13275 ft 260 kts
2026-04-27 14:51 50.11764 -1.82968 13274 ft 261 kts
2026-04-27 14:51 50.12989 -1.82804 13276 ft 261 kts
2026-04-27 14:52 50.15362 -1.82258 13270 ft 262 kts 13°
2026-04-27 14:52 50.17107 -1.81393 13271 ft 264 kts 16°
2026-04-27 14:52 50.18846 -1.80475 13275 ft 264 kts 16°
2026-04-27 14:52 50.20596 -1.79598 13272 ft 264 kts 14°
2026-04-27 14:53 50.22355 -1.78795 13272 ft 263 kts 13°
2026-04-27 14:53 50.24114 -1.78011 13271 ft 263 kts 13°
2026-04-27 14:53 50.25873 -1.77220 13271 ft 263 kts 13°
2026-04-27 14:53 50.27630 -1.76427 13271 ft 263 kts 13°
2026-04-27 14:54 50.29388 -1.75634 13268 ft 263 kts 13°
2026-04-27 14:54 50.31146 -1.74839 13268 ft 263 kts 13°
2026-04-27 14:54 50.32902 -1.74048 13268 ft 263 kts 13°
2026-04-27 14:54 50.34658 -1.73253 13268 ft 263 kts 13°
2026-04-27 14:55 50.36410 -1.72458 13270 ft 263 kts 13°
2026-04-27 14:55 50.38171 -1.71661 13270 ft 263 kts 13°
2026-04-27 14:55 50.39926 -1.70865 13271 ft 263 kts 13°
2026-04-27 14:55 50.41681 -1.70070 13268 ft 262 kts 13°
2026-04-27 14:56 50.43435 -1.69273 13268 ft 262 kts 13°
2026-04-27 14:56 50.45188 -1.68475 13267 ft 262 kts 13°
2026-04-27 14:56 50.46942 -1.67681 13266 ft 262 kts 13°
2026-04-27 14:56 50.48693 -1.66884 13266 ft 262 kts 13°
2026-04-27 14:57 50.50440 -1.66065 13260 ft 262 kts 15°
2026-04-27 14:57 50.52134 -1.65001 13261 ft 263 kts 21°
2026-04-27 14:57 50.53797 -1.63781 13260 ft 264 kts 22°
2026-04-27 14:57 50.55457 -1.62545 13260 ft 264 kts 22°
2026-04-27 14:58 50.57126 -1.61334 13262 ft 264 kts 21°
2026-04-27 14:58 50.58780 -1.60179 13262 ft 264 kts 21°
2026-04-27 14:58 50.60458 -1.59014 13260 ft 264 kts 21°
2026-04-27 14:58 50.62136 -1.57846 13259 ft 264 kts 21°
2026-04-27 14:59 50.63812 -1.56681 13254 ft 263 kts 21°
2026-04-27 14:59 50.65487 -1.55515 13249 ft 263 kts 21°
2026-04-27 14:59 50.67155 -1.54346 13251 ft 262 kts 21°
2026-04-27 14:59 50.68824 -1.53190 13244 ft 262 kts 21°
2026-04-27 15:00 50.70488 -1.52030 13246 ft 262 kts 21°
2026-04-27 15:00 50.72153 -1.50874 13248 ft 261 kts 21°
2026-04-27 15:00 50.73816 -1.49712 13238 ft 261 kts 21°
2026-04-27 15:00 50.75475 -1.48548 13244 ft 261 kts 21°
2026-04-27 15:01 50.77131 -1.47391 13242 ft 260 kts 21°
2026-04-27 15:01 50.78786 -1.46230 13242 ft 260 kts 21°
2026-04-27 15:01 50.80441 -1.45070 13239 ft 260 kts 21°
2026-04-27 15:01 50.82095 -1.43911 13241 ft 260 kts 21°
2026-04-27 15:02 50.83749 -1.42749 13243 ft 260 kts 21°
2026-04-27 15:02 50.85403 -1.41591 13239 ft 260 kts 21°
2026-04-27 15:02 50.87057 -1.40429 13259 ft 260 kts 21°
2026-04-27 15:02 50.88714 -1.39265 13250 ft 261 kts 21°
2026-04-27 15:03 50.90372 -1.38096 13242 ft 261 kts 21°
2026-04-27 15:03 50.92032 -1.36928 13245 ft 261 kts 21°
2026-04-27 15:03 50.93690 -1.35759 13238 ft 261 kts 21°
2026-04-27 15:03 50.95348 -1.34584 13238 ft 260 kts 21°
2026-04-27 15:04 50.97045 -1.33657 13239 ft 257 kts 12°
2026-04-27 15:04 50.98784 -1.33016 13240 ft 256 kts
2026-04-27 15:04 51.00308 -1.32476 13242 ft 257 kts
2026-04-27 15:04 51.02049 -1.31822 13235 ft 257 kts 11°
2026-04-27 15:05 51.03780 -1.31105 13243 ft 258 kts 12°
2026-04-27 15:05 51.05516 -1.30375 13239 ft 258 kts 12°
2026-04-27 15:05 51.07249 -1.29649 13245 ft 258 kts 12°
2026-04-27 15:05 51.08983 -1.28918 13238 ft 258 kts 12°
2026-04-27 15:06 51.10716 -1.28189 13240 ft 258 kts 12°
2026-04-27 15:06 51.12432 -1.27468 13240 ft 258 kts 12°
2026-04-27 15:06 51.14169 -1.26737 13233 ft 258 kts 12°
2026-04-27 15:06 51.15931 -1.25998 13237 ft 258 kts 12°
2026-04-27 15:07 51.17643 -1.25280 13235 ft 258 kts 12°
2026-04-27 15:07 51.19374 -1.24546 13237 ft 258 kts 12°
2026-04-27 15:07 51.21112 -1.23799 13242 ft 258 kts 12°
2026-04-27 15:07 51.22848 -1.23067 13240 ft 258 kts 12°
2026-04-27 15:08 51.24586 -1.22339 13239 ft 258 kts 12°
2026-04-27 15:08 51.26322 -1.21606 13241 ft 258 kts 12°
2026-04-27 15:08 51.28056 -1.20871 13240 ft 258 kts 12°
2026-04-27 15:08 51.29793 -1.20135 13237 ft 258 kts 12°
2026-04-27 15:09 51.31528 -1.19400 13239 ft 258 kts 12°
2026-04-27 15:09 51.33264 -1.18662 13244 ft 258 kts 11°
2026-04-27 15:09 51.34998 -1.17920 13240 ft 258 kts 11°
2026-04-27 15:09 51.36731 -1.17181 13237 ft 258 kts 11°
2026-04-27 15:10 51.38466 -1.16442 13240 ft 257 kts 11°
2026-04-27 15:10 51.40197 -1.15711 13234 ft 257 kts 11°
2026-04-27 15:10 51.41886 -1.14989 13237 ft 257 kts 11°
2026-04-27 15:10 51.43656 -1.14237 13241 ft 257 kts 11°
2026-04-27 15:11 51.45383 -1.13497 13239 ft 257 kts 11°
2026-04-27 15:11 51.47111 -1.12759 13240 ft 257 kts 11°
2026-04-27 15:11 51.48840 -1.12024 13236 ft 257 kts 11°
2026-04-27 15:11 51.50569 -1.11277 13239 ft 257 kts 11°
2026-04-27 15:12 51.52274 -1.10548 13240 ft 257 kts 11°
2026-04-27 15:12 51.54003 -1.09809 13245 ft 258 kts 11°
2026-04-27 15:12 51.55739 -1.09065 13243 ft 258 kts 11°
2026-04-27 15:12 51.57473 -1.08316 13240 ft 259 kts 11°
2026-04-27 15:13 51.59212 -1.07564 13238 ft 259 kts 11°
2026-04-27 15:13 51.60950 -1.06822 13237 ft 258 kts 10°
2026-04-27 15:13 51.62696 -1.06138 13238 ft 258 kts
2026-04-27 15:13 51.64458 -1.05649 13236 ft 256 kts
2026-04-27 15:14 51.66219 -1.05248 13240 ft 256 kts
2026-04-27 15:14 51.67982 -1.04849 13237 ft 256 kts
2026-04-27 15:14 51.69745 -1.04440 13237 ft 256 kts
2026-04-27 15:14 51.71504 -1.04002 13236 ft 256 kts
2026-04-27 15:15 51.73260 -1.03552 13239 ft 256 kts
2026-04-27 15:15 51.75021 -1.03102 13237 ft 256 kts
2026-04-27 15:15 51.76777 -1.02648 13237 ft 256 kts
2026-04-27 15:15 51.78534 -1.02197 13238 ft 256 kts
2026-04-27 15:16 51.80292 -1.01742 13240 ft 256 kts
2026-04-27 15:16 51.82053 -1.01278 13243 ft 257 kts
2026-04-27 15:16 51.83811 -1.00905 13233 ft 251 kts 354°
2026-04-27 15:16 51.85431 -1.01677 13240 ft 241 kts 331°
2026-04-27 15:17 51.86873 -1.03053 13236 ft 240 kts 322°
2026-04-27 15:17 51.88189 -1.04697 13235 ft 235 kts 319°
2026-04-27 15:17 51.89415 -1.06340 13088 ft 226 kts 318°
2026-04-27 15:17 51.90613 -1.07960 12821 ft 223 kts 318°
2026-04-27 15:18 51.91809 -1.09563 12521 ft 223 kts 319°
2026-04-27 15:18 51.93023 -1.11139 12211 ft 224 kts 320°
2026-04-27 15:18 51.94241 -1.12705 11902 ft 224 kts 320°
2026-04-27 15:18 51.95442 -1.14247 11634 ft 223 kts 320°
2026-04-27 15:19 51.96656 -1.15806 11361 ft 222 kts 320°
2026-04-27 15:19 51.97865 -1.17358 11077 ft 221 kts 320°
2026-04-27 15:19 51.99071 -1.18903 10803 ft 221 kts 320°
2026-04-27 15:19 52.00144 -1.20284 10555 ft 222 kts 321°
2026-04-27 15:20 52.01353 -1.21839 10258 ft 222 kts 321°
2026-04-27 15:20 52.02566 -1.23401 9944 ft 223 kts 321°
2026-04-27 15:20 52.03780 -1.24966 9644 ft 223 kts 321°
2026-04-27 15:20 52.04993 -1.26529 9338 ft 223 kts 321°
2026-04-27 15:21 52.06212 -1.28097 9030 ft 223 kts 321°
2026-04-27 15:21 52.07429 -1.29670 8716 ft 224 kts 321°
2026-04-27 15:21 52.08648 -1.31245 8408 ft 224 kts 321°
2026-04-27 15:21 52.09871 -1.32826 8100 ft 224 kts 321°
2026-04-27 15:22 52.10678 -1.33870 7883 ft 224 kts 322°
2026-04-27 15:22 52.11896 -1.35446 7589 ft 223 kts 322°
2026-04-27 15:22 52.13110 -1.37019 7294 ft 223 kts 322°
2026-04-27 15:22 52.14320 -1.38588 6998 ft 222 kts 322°
2026-04-27 15:23 52.15530 -1.40153 6708 ft 222 kts 322°
2026-04-27 15:23 52.16739 -1.41722 6400 ft 222 kts 322°
2026-04-27 15:23 52.17946 -1.43292 6085 ft 222 kts 322°
2026-04-27 15:23 52.19155 -1.44866 5773 ft 223 kts 322°
2026-04-27 15:24 52.20376 -1.46406 5476 ft 222 kts 324°
2026-04-27 15:24 52.21629 -1.47875 5177 ft 222 kts 325°
2026-04-27 15:24 52.22889 -1.49329 4868 ft 222 kts 324°
2026-04-27 15:24 52.24099 -1.50867 4551 ft 220 kts 322°
2026-04-27 15:25 52.25289 -1.52420 4247 ft 219 kts 322°
2026-04-27 15:25 52.26482 -1.53953 3938 ft 218 kts 324°
2026-04-27 15:25 52.27721 -1.55367 3616 ft 216 kts 327°
2026-04-27 15:25 52.28984 -1.56690 3304 ft 215 kts 328°
2026-04-27 15:26 52.30244 -1.58008 2991 ft 215 kts 327°
2026-04-27 15:26 52.31482 -1.59360 2729 ft 214 kts 326°
2026-04-27 15:26 52.32686 -1.60722 2422 ft 213 kts 326°
2026-04-27 15:26 52.33898 -1.62095 2193 ft 209 kts 327°
2026-04-27 15:27 52.35088 -1.63392 2093 ft 202 kts 327°
2026-04-27 15:27 52.36229 -1.64629 2032 ft 191 kts 327°
2026-04-27 15:27 52.37295 -1.65826 2027 ft 181 kts 326°
2026-04-27 15:27 52.38313 -1.66967 1886 ft 176 kts 327°
2026-04-27 15:28 52.39279 -1.68014 1666 ft 157 kts 328°
2026-04-27 15:28 52.40141 -1.68973 1448 ft 143 kts 326°
2026-04-27 15:28 52.40939 -1.69871 1272 ft 135 kts 326°
2026-04-27 15:28 52.41682 -1.70706 1092 ft 125 kts 328°
2026-04-27 15:29 52.42378 -1.71505 929 ft 118 kts 330°
2026-04-27 15:29 52.43046 -1.72215 758 ft 113 kts 328°
2026-04-27 15:29 52.43686 -1.72908 585 ft 109 kts 326°
2026-04-27 15:29 52.44305 -1.73609 450 ft 104 kts 328°
2026-04-27 15:30 52.44886 -1.74247 325 ft 93 kts 327°
2026-04-27 15:30 52.45295 -1.74702 322 ft 56 kts 325°
2026-04-27 15:30 52.45571 -1.75009 319 ft 40 kts 326°
2026-04-27 15:30 52.45759 -1.75217 320 ft 28 kts 326°
2026-04-27 15:31 52.45904 -1.75378 312 ft 23 kts 326°
2026-04-27 15:31 52.46020 -1.75506 308 ft 19 kts 326°
2026-04-27 15:31 52.46134 -1.75618 308 ft 14 kts 354°
2026-04-27 15:31 52.46177 -1.75557 307 ft 8 kts 55°
2026-04-27 15:32 52.46217 -1.75455 301 ft 13 kts 70°
2026-04-27 15:32 52.46163 -1.75339 299 ft 16 kts 145°
2026-04-27 15:32 52.46062 -1.75225 303 ft 19 kts 146°
2026-04-27 15:32 52.45946 -1.75097 302 ft 21 kts 146°
2026-04-27 15:33 52.45834 -1.74973 304 ft 19 kts 146°
2026-04-27 15:33 52.45724 -1.74850 309 ft 19 kts 146°
2026-04-27 15:33 52.45617 -1.74731 315 ft 18 kts 146°
2026-04-27 15:33 52.45511 -1.74614 320 ft 18 kts 146°
2026-04-27 15:34 52.45445 -1.74474 320 ft 16 kts 116°
2026-04-27 15:34 52.45390 -1.74296 319 ft 19 kts 117°
2026-04-27 15:34 52.45328 -1.74092 320 ft 19 kts 116°
2026-04-27 15:34 52.45263 -1.73955 319 ft 15 kts 146°
2026-04-27 15:35 52.45182 -1.73866 318 ft 14 kts 146°
2026-04-27 15:35 52.45106 -1.73771 320 ft 13 kts 122°
2026-04-27 15:35 52.45128 -1.73652 320 ft 10 kts 56°
2026-04-27 15:35 52.45164 -1.73584 320 ft 5 kts
2026-04-27 15:36 52.45177 -1.73590 320 ft 1 kts 338°
2026-04-27 15:36 52.45187 -1.73600 318 ft 3 kts 329°
2026-04-27 15:36 52.45205 -1.73619 320 ft 3 kts 326°
2026-04-27 15:36 52.45220 -1.73636 319 ft 1 kts 327°
2026-04-27 15:37 52.45224 -1.73640 320 ft 0 kts 326°